Weather History for Louisville Bowman, KY

Change the Weather History Date:

Tuesday, July 15, 2014

  Actual Average Record
Temperature  
Mean Temperature 70 °F 78 °F  
Max Temperature 77 °F 87 °F 105 °F (2006)
Min Temperature 62 °F 69 °F 55 °F (1967)
Degree Days  
Heating Degree Days 0 0  
Month to date heating degree days 0 0  
Since 1 June heating degree days 0 3  
Since 1 July heating degree days 0 0  
Cooling Degree Days 5 13  
Month to date cooling degree days 170 195  
Year to date cooling degree days 829 647  
Since 1 June cooling degree days 574 500  
Growing Degree Days 22 (Base 50)    
Moisture  
Dew Point 57 °F    
Average Humidity 68    
Maximum Humidity 97    
Minimum Humidity 38    
Precipitation  
Precipitation 0.00 in 0.14 in 1.10 in (1972)
Month to date precipitation 2.18 1.78  
Year to date precipitation 23.23 25.84  
Sea Level Pressure  
Sea Level Pressure 29.91 in    
Wind  
Wind Speed 9 mph (NW)    
Max Wind Speed 18 mph    
Max Gust Speed 26 mph    
Visibility 10 miles    
Events Rain    
T = Trace of Precipitation, MM = Missing Value Source: NWS Daily Summary

Daily Weather History Graph

Daily Weather History Graph

Search for Another Location

Airport:

Trip Planner

Search our weather history database for the weather conditions in past years. The results will help you decide how hot, cold, wet, or windy it might be!

Date:

Astronomy

Jul. 15, 2014 Rise Set
Actual Time 6:31 AM EDT 9:05 PM EDT
Civil Twilight 6:00 AM EDT 9:36 PM EDT
Nautical Twilight 5:22 AM EDT 10:14 PM EDT
Astronomical Twilight 4:39 AM EDT 10:56 PM EDT
Moon 11:17 PM EDT (7/15) 10:20 AM EDT (7/15)
Length of Visible Light 15h 35m
Length of Day
14h 33m
Waning Gibbous, 85% of the Moon is Illuminated
Jul 15
Waning Gibbous
Jul 18
Last Quarter
Jul 26
New
Aug 3
First Quarter
Aug 10
Full

Hourly Weather History & Observations

Time (EDT) Temp. Dew Point Humidity Pressure Visibility Wind Dir Wind Speed Gust Speed Precip Events Conditions
12:01 AM 70.0 °F 66.9 °F 90% 29.89 in 10.0 mi Calm Calm - N/A   Mostly Cloudy
12:19 AM 70.0 °F 66.0 °F 87% 29.89 in 10.0 mi Calm Calm - N/A   Mostly Cloudy
12:53 AM 70.0 °F 66.9 °F 90% 29.88 in 10.0 mi Calm Calm - N/A   Scattered Clouds
1:53 AM 70.0 °F 68.0 °F 93% 29.88 in 6.0 mi Calm Calm - N/A   Overcast
2:48 AM 69.8 °F 66.2 °F 88% 29.88 in 10.0 mi WSW 4.6 mph - N/A   Overcast
2:53 AM 70.0 °F 66.9 °F 90% 29.86 in 10.0 mi WSW 3.5 mph - N/A   Overcast
3:06 AM 70.0 °F 66.9 °F 90% 29.88 in 10.0 mi Calm Calm - N/A   Overcast
3:53 AM 70.0 °F 66.9 °F 90% 29.86 in 10.0 mi WNW 3.5 mph - N/A   Overcast
4:53 AM 70.0 °F 66.0 °F 87% 29.86 in 10.0 mi NW 6.9 mph - N/A   Overcast
5:53 AM 69.1 °F 64.0 °F 84% 29.87 in 10.0 mi NW 8.1 mph - N/A   Mostly Cloudy
6:53 AM 66.9 °F 61.0 °F 81% 29.89 in 10.0 mi NW 8.1 mph - N/A   Clear
7:53 AM 66.9 °F 57.9 °F 73% 29.91 in 10.0 mi NW 6.9 mph - N/A   Clear
8:53 AM 69.1 °F 55.9 °F 63% 29.93 in 10.0 mi NW 6.9 mph - N/A   Clear
9:53 AM 71.1 °F 52.0 °F 51% 29.93 in 10.0 mi NW 12.7 mph - N/A   Clear
10:53 AM 71.1 °F 54.0 °F 55% 29.94 in 10.0 mi WNW 12.7 mph - N/A   Clear
11:53 AM 73.0 °F 48.9 °F 42% 29.94 in 10.0 mi WNW 16.1 mph - N/A   Clear
12:53 PM 73.9 °F 48.0 °F 40% 29.94 in 10.0 mi West 15.0 mph 25.3 mph 0.00 in Rain Light Rain
1:53 PM 75.9 °F 46.9 °F 36% 29.93 in 10.0 mi WNW 16.1 mph 20.7 mph 0.00 in   Clear
2:53 PM 75.9 °F 48.0 °F 37% 29.92 in 10.0 mi NW 13.8 mph 19.6 mph N/A   Clear
3:53 PM 77.0 °F 51.1 °F 40% 29.92 in 10.0 mi NNW 10.4 mph 19.6 mph N/A   Clear
4:53 PM 75.9 °F 50.0 °F 40% 29.92 in 10.0 mi NW 15.0 mph 21.9 mph N/A   Mostly Cloudy
5:53 PM 75.0 °F 50.0 °F 41% 29.93 in 10.0 mi WNW 12.7 mph - N/A   Partly Cloudy
6:53 PM 72.0 °F 50.0 °F 46% 29.94 in 10.0 mi NNW 11.5 mph 20.7 mph N/A   Scattered Clouds
7:53 PM 73.0 °F 48.9 °F 42% 29.94 in 10.0 mi NW 13.8 mph - N/A   Partly Cloudy
8:53 PM 69.1 °F 51.1 °F 53% 29.95 in 10.0 mi WNW 5.8 mph - N/A   Clear
9:53 PM 66.9 °F 52.0 °F 59% 29.96 in 10.0 mi NW 3.5 mph - N/A   Clear
10:53 PM 66.0 °F 52.0 °F 60% 29.97 in 10.0 mi WNW 3.5 mph - N/A   Clear
11:53 PM 64.4 °F 51.8 °F 64% 29.99 in 10.0 mi WNW 3.5 mph - N/A   Clear